FW5198 Weather Reports


Display with metric or nautical units.
time (UTC)temp
F
wind
direction
speed
MPH
gust
MPH
rain 1hr
in
rain 24hr
in
rain mn
in
humidity
%
barometer
mb
20260505053047 60 0 0.0 1.0 0.00 0.00 0.00 76 1011.6
20260505051543 61 34 0.0 1.0 0.00 0.00 0.00 71 1011.6
20260505041539 64 28 0.0 2.0 0.00 0.00 0.00 63 1011.2
20260505040040 65 1 1.0 4.0 0.00 0.00 0.00 62 1011.1
20260505034542 65 37 1.0 3.0 0.00 0.00 0.00 61 1011.2
20260505033043 66 35 1.0 4.0 0.00 0.00 0.00 60 1011.2
20260505031552 66 53 3.0 8.0 0.00 0.00 0.00 59 1010.9
20260505030044 67 39 2.0 5.0 0.00 0.00 0.00 58 1010.8
20260505024550 67 4 1.0 5.0 0.00 0.00 0.00 58 1010.9
20260505023047 67 36 1.0 4.0 0.00 0.00 0.00 56 1010.7
20260505021540 68 23 1.0 4.0 0.00 0.00 0.00 55 1010.5
20260505020041 69 36 1.0 4.0 0.00 0.00 0.00 54 1010.4
20260505014601 69 18 2.0 4.0 0.00 0.00 0.00 53 1010.5
20260505013043 70 37 1.0 4.0 0.00 0.00 0.00 53 1010.6
20260505011550 70 36 1.0 4.0 0.00 0.00 0.00 52 1010.6
20260505010040 71 46 2.0 7.0 0.00 0.00 0.00 51 1010.6
20260505004537 72 35 1.0 3.0 0.00 0.00 0.00 50 1010.6
20260505003043 73 35 1.0 7.0 0.00 0.00 0.00 48 1010.6
20260505001545 74 26 3.0 8.0 0.00 0.00 0.00 46 1010.6
20260505000052 75 79 4.0 10.0 0.00 0.00 0.00 46 1010.7
20260504234542 76 52 4.0 8.0 0.00 0.00 0.00 44 1010.6
20260504233041 77 79 3.0 10.0 0.00 0.00 0.00 43 1010.6
20260504231541 78 56 4.0 11.0 0.00 0.00 0.00 42 1010.8
20260504230045 78 46 7.0 16.0 0.00 0.00 0.00 42 1010.7
20260504224545 78 79 6.0 12.0 0.00 0.00 0.00 43 1010.7
20260504223041 78 36 6.0 15.0 0.00 0.00 0.00 42 1010.7
20260504221539 79 15 6.0 13.0 0.00 0.00 0.00 42 1010.6
20260504220040 79 27 6.0 15.0 0.00 0.00 0.00 42 1010.6
20260504214542 79 53 7.0 22.0 0.00 0.00 0.00 42 1010.3
20260504213042 79 65 5.0 18.0 0.00 0.00 0.00 42 1010.3
20260504211542 79 15 5.0 15.0 0.00 0.00 0.00 42 1010.3
20260504210055 79 17 9.0 19.0 0.00 0.00 0.00 39 1010.6
20260504204553 79 50 9.0 17.0 0.00 0.00 0.00 40 1010.8
20260504203038 79 51 7.0 14.0 0.00 0.00 0.00 42 1010.9
20260504201542 79 56 7.0 16.0 0.00 0.00 0.00 42 1011.1
20260504200043 78 59 7.0 17.0 0.00 0.00 0.00 44 1011.4
20260504194540 78 18 9.0 19.0 0.00 0.00 0.00 46 1011.2
20260504193040 78 82 7.0 14.0 0.00 0.00 0.00 46 1011.5
20260504191543 78 353 6.0 15.0 0.00 0.00 0.00 46 1011.8
20260504190038 78 33 5.0 15.0 0.00 0.00 0.00 45 1012.0
20260504184543 78 68 5.0 17.0 0.00 0.00 0.00 48 1011.9
20260504183040 78 46 6.0 18.0 0.00 0.00 0.00 47 1012.2
20260504181537 77 45 5.0 18.0 0.00 0.00 0.00 47 1012.2
20260504180039 77 40 8.0 16.0 0.00 0.00 0.00 48 1012.5
20260504174538 77 346 6.0 16.0 0.00 0.00 0.00 48 1012.6
20260504173041 76 37 8.0 17.0 0.00 0.00 0.00 48 1012.7
20260504171539 76 11 6.0 13.0 0.00 0.00 0.00 50 1013.0
20260504081541 52 50 1.0 4.0 0.00 0.00 0.00 75 1014.1